{"data":{"norad_id":49115,"intl_designator":"2021-077A","name":"TJS-7","alt_names":[],"object_type":"PAYLOAD","status":"ACTIVE","operator":null,"country":"PRC","launch_date":"2021-08-24","launch_site_code":"XICLF","launch_vehicle":null,"mission":null,"orbit_class":"UNKNOWN","rcs_meters":null,"size_class":null,"mass_kg":null,"dimensions":null,"purposes":["comms"],"wikipedia_slug":null,"has_3d_model":false,"image_url":null,"decayed_at":null,"tle_current":{"epoch":"2026-05-25T03:34:38.683776Z","epoch_age_seconds":69050,"freshness":"FRESH","line1":"1 49115U 21077A   26145.14905884 -.00000126  00000+0  00000+0 0  9992","line2":"2 49115   0.4514  86.3107 0002216 318.8981 151.7359  1.00271406  9326","mean_motion":1.00271406,"eccentricity":0.0002216,"inclination_deg":0.4514,"raan_deg":86.3107,"arg_perigee_deg":318.8981,"mean_anomaly_deg":151.7359,"bstar":0,"rev_number":932,"period_min":1436.1023321045,"perigee_km":35777.357480836,"apogee_km":35796.044937131,"semimajor_km":42164.838208983,"source":"CELESTRAK","updated_at":"2026-05-25T13:38:14.101582Z"}}}